RH
88 88 98 99 99 92 85 86 94 98 99 90 87 84 82 84 87 94 97 96 93 94 100 100 100 100 100 100 100 100 100 100 100 98 96 96 89 65
88 90 95 99 99 95 93 90 90 98 99 100 100 99 90 86 96 100 96 99 99 100 100 99 100 100 100 100 100 99 84 79 70 35 22 12 9 7
84 78 96 99 99 98 99 99 99 100 100 100 100 99 94 93 99 100 100 100 98 99 99 98 93 91 95 96 43 45 25 9 6 6 4 4 5 5
82 84 83 84 88 93 93 94 94 93 94 100 99 99 98 99 100 100 99 98 90 37 20 28 21 34 26 11 9 9 9 10 10 10 8 7 7 9
79 82 86 87 90 88 89 90 92 92 94 97 95 99 98 99 97 90 66 76 42 11 9 9 9 10 13 10 13 13 13 11 10 11 11 11 17 20
95 90 86 93 89 88 87 92 93 93 88 84 86 86 76 59 45 22 16 18 14 11 12 15 22 19 18 17 15 13 14 16 19 25 30 46 58 51
88 91 88 81 69 60 53 40 26 18 14 14 17 18 19 16 15 16 15 14 12 12 12 14 13 12 13 14 17 20 26 29 35 51 96 99 92 65
32 30 27 22 20 17 15 13 12 12 13 15 16 18 19 16 17 16 18 23 29 17 14 12 14 15 18 21 27 28 27 38 85 100 100 99 85 79
23 21 20 18 17 15 13 13 13 14 15 16 20 20 19 21 20 19 21 22 28 21 18 15 21 22 25 26 27 26 35 69 74 81 72 67 66 66
18 19 19 18 17 16 16 16 17 17 18 18 18 18 20 21 21 21 21 21 23 27 28 23 32 29 28 31 33 42 81 65 55 63 64 66 66 67
18 18 18 18 17 17 19 21 21 21 22 20 21 22 23 22 23 25 26 26 31 65 54 45 48 38 32 36 53 86 84 56 62 67 65 65 68 70
16 16 17 18 17 19 20 22 25 26 28 28 28 27 28 28 27 28 29 30 32 43 70 56 52 69 56 36 40 49 58 61 67 70 71 72 76 82
17 18 18 17 18 18 20 22 23 26 27 30 32 33 33 32 31 31 33 36 40 43 55 71 59 66 100 97 39 50 64 71 72 71 73 79 81 78
18 19 19 19 20 23 25 26 23 28 33 34 34 35 35 35 35 35 38 43 49 56 62 74 72 73 86 99 99 62 66 71 76 77 80 79 74 74
20 22 24 23 24 25 30 30 26 34 40 40 39 40 39 40 40 41 43 48 54 61 69 75 80 84 88 87 92 79 80 74 81 82 80 79 75 74
24 25 27 28 30 32 33 35 32 39 45 47 46 46 45 44 46 47 46 47 47 54 70 82 88 86 80 79 88 82 81 98 85 84 85 77 72 74
32 35 36 35 38 39 39 35 31 35 44 50 49 46 47 49 52 54 52 49 51 54 62 74 80 80 79 78 84 79 92 98 86 88 85 80 66 72
39 39 40 40 42 43 44 41 35 36 43 52 54 49 52 55 60 58 55 57 56 58 71 77 78 77 74 81 84 84 91 97 94 90 90 91 68 71
42 42 42 44 45 46 50 46 40 41 42 45 46 48 55 58 61 57 63 69 64 60 71 84 88 91 95 100 91 90 96 93 91 88 93 94 97 81
45 42 41 43 46 50 50 45 46 51 42 41 49 52 60 60 60 64 74 71 68 64 71 85 93 100 100 100 100 78 86 94 96 92 88 92 85 84
42 42 40 47 50 52 51 49 51 55 45 47 50 58 64 62 65 73 76 73 74 74 72 82 90 93 94 98 96 100 81 89 96 98 99 100 91 79
47 46 45 53 58 56 53 54 56 56 48 49 51 64 70 70 76 80 76 72 75 77 74 81 86 87 90 97 100 96 84 83 87 92 96 100 100 97
85 72 56 62 70 75 58 57 59 58 61 63 67 74 84 84 88 90 85 83 84 80 78 83 86 87 92 100 100 99 94 91 87 84 87 93 93 94
Wind_Speed
17 17 19 19 19 19 18 19 15 12 15 15 18 19 19 18 22 24 27 28 25 26 27 31 31 31 29 33 34 34 33 33 30 29 31 34 36 37
12 12 13 13 14 15 15 14 13 16 11 13 18 14 14 18 22 24 25 23 26 27 23 27 30 33 32 29 29 28 28 29 30 31 33 35 35 37
10 10 10 10 10 12 14 13 14 14 13 15 13 14 18 20 21 21 21 24 24 23 22 22 26 29 29 28 27 27 27 27 27 30 33 33 32 34
12 11 12 12 12 11 11 12 14 14 14 15 15 16 16 18 19 21 21 21 21 20 21 22 22 24 19 25 26 25 26 27 28 31 31 30 31 31
10 10 9 11 10 10 11 10 10 10 11 13 15 16 18 19 18 16 15 16 21 22 20 19 20 19 21 24 26 27 27 28 29 29 28 29 28 28
7 7 8 7 5 6 7 7 7 8 8 8 9 10 11 11 12 12 13 15 16 18 17 17 16 17 20 24 26 27 28 29 27 25 24 23 24 26
2 2 3 3 3 4 4 4 4 4 4 4 5 5 6 6 8 9 11 12 13 11 13 16 20 21 21 22 22 23 24 23 22 18 17 20 25 27
2 1 1 1 1 1 1 1 1 1 2 2 2 3 4 6 7 9 11 12 10 13 19 20 16 18 18 19 19 23 24 20 13 18 21 25 27 28
5 4 3 2 1 1 1 1 1 1 2 2 1 2 4 6 7 8 10 12 14 16 18 21 19 16 18 21 22 23 20 15 19 20 23 26 28 29
6 5 4 3 2 2 2 2 2 1 1 2 3 4 5 6 7 9 12 14 16 15 14 18 18 22 24 21 18 17 11 12 21 22 24 27 29 30
7 6 6 6 5 4 3 3 3 4 4 4 5 6 7 8 9 12 13 16 16 11 15 16 21 28 26 18 14 8 13 24 20 21 24 25 26 28
10 9 8 8 6 5 5 5 6 7 7 7 8 9 9 10 12 13 15 16 17 14 14 21 22 21 20 17 19 27 25 23 24 24 24 22 21 24
12 11 11 9 8 7 7 8 9 9 9 9 10 10 11 11 12 13 14 15 16 18 17 20 23 22 16 22 26 27 27 30 29 26 24 18 19 24
14 14 12 11 10 10 11 10 9 9 10 10 10 12 12 13 13 13 14 14 15 17 18 18 22 22 22 26 29 30 29 30 28 25 20 28 25 26
15 15 14 13 12 12 12 12 13 12 12 12 12 13 14 14 14 12 12 13 14 15 15 16 18 19 21 27 31 32 31 32 21 24 27 27 28 28
18 17 16 15 14 13 12 13 13 14 14 14 15 15 15 14 13 12 12 13 15 14 14 13 16 19 23 25 26 28 26 23 28 26 28 28 27 21
19 19 19 18 16 14 14 14 14 15 16 16 16 16 14 12 12 11 12 14 16 17 17 16 16 18 21 22 25 20 20 22 25 26 29 30 24 19
24 24 23 21 19 17 15 15 14 14 15 17 16 14 11 11 10 10 12 14 16 17 17 17 19 22 21 17 15 17 18 22 24 26 26 27 27 20
30 28 27 24 20 18 18 17 16 14 15 16 15 13 11 11 10 11 11 13 17 18 16 16 17 19 21 19 20 14 24 26 26 26 24 23 26 23
33 31 29 25 21 20 19 18 16 15 15 14 14 12 12 11 11 11 10 12 16 19 18 16 16 18 20 21 25 25 16 22 23 24 23 24 21 17
34 32 29 25 22 20 19 18 17 15 14 13 13 12 12 12 12 11 12 12 14 18 19 17 16 18 20 19 20 24 20 16 17 20 21 22 22 20
32 28 27 23 21 19 19 19 18 16 14 12 12 11 13 13 12 13 13 14 15 17 19 18 17 18 17 17 21 23 23 18 12 13 13 15 19 19
29 28 24 23 20 20 20 19 17 16 15 12 11 11 13 13 13 14 15 15 16 17 18 18 17 16 17 16 18 21 20 18 15 14 14 15 18 17
Wind_Direction
279 274 269 262 257 257 253 250 243 235 217 249 242 246 253 263 264 265 267 275 279 279 277 275 275 269 275 270 276 273 271 266 267 272 275 276 276 276
306 291 274 266 252 240 241 249 250 246 245 231 228 230 255 256 263 258 273 271 283 266 268 286 283 276 277 276 276 275 278 281 282 280 281 281 283 284
307 296 301 290 276 257 256 250 241 244 243 239 234 246 254 271 264 264 271 282 276 274 279 283 284 283 282 281 291 284 284 288 290 289 284 285 284 282
301 297 292 285 282 281 279 276 272 268 264 259 254 262 262 259 260 275 280 283 281 292 293 288 286 280 287 290 290 289 291 290 286 285 288 287 289 289
285 290 301 288 273 284 278 270 264 256 253 255 257 248 255 260 274 281 288 293 296 298 295 293 288 294 291 287 288 294 294 291 286 283 284 284 286 285
276 262 271 276 272 271 272 268 259 245 236 234 232 237 252 264 272 279 280 284 284 290 300 297 296 297 297 293 292 290 287 287 289 290 289 288 286 286
287 276 258 236 255 261 266 247 230 228 231 236 242 253 265 277 283 297 302 307 311 312 300 299 304 301 299 296 296 293 290 291 291 289 284 281 282 291
282 285 289 270 274 299 283 282 279 231 228 239 253 268 283 288 307 320 323 326 324 318 311 315 316 310 307 305 304 296 297 298 291 274 276 282 291 295
260 263 265 269 252 220 231 249 239 228 218 226 236 285 311 318 315 312 312 315 312 316 315 319 320 317 315 313 305 296 293 279 281 291 294 293 293 295
268 272 279 284 279 276 269 266 271 273 272 279 268 268 277 294 310 314 316 318 321 322 323 313 315 317 321 321 309 296 267 298 307 299 298 295 295 294
255 249 245 247 248 263 277 284 286 282 277 286 294 303 310 312 319 320 321 324 330 323 322 323 323 322 326 326 318 280 265 304 300 297 298 298 293 292
245 246 247 254 258 261 265 276 278 278 286 300 306 305 305 309 317 323 324 326 325 334 320 320 317 328 323 322 311 312 317 318 318 318 312 308 298 298
247 249 250 252 261 268 273 276 274 279 281 284 288 292 299 305 315 318 317 319 318 310 312 310 313 317 305 306 318 319 321 324 323 321 315 308 306 306
246 247 248 256 259 268 277 278 283 278 277 279 285 293 299 301 305 308 313 314 311 311 314 307 303 305 300 300 303 317 319 321 323 320 316 313 312 313
245 248 248 251 257 268 279 289 291 283 279 283 286 288 290 292 296 304 309 313 318 314 309 302 300 306 302 301 302 309 319 321 321 320 319 317 317 318
243 244 247 249 253 262 271 281 279 276 275 278 282 284 286 286 292 301 313 321 320 320 320 309 303 303 306 306 303 307 316 308 318 322 320 318 320 321
244 241 242 245 250 255 264 272 274 273 272 273 276 281 282 283 287 303 316 320 327 330 325 317 311 308 307 308 300 310 312 309 319 322 323 320 324 329
240 240 243 245 248 253 260 268 269 277 272 272 277 278 274 278 289 304 313 325 330 327 322 321 320 320 323 325 314 317 314 319 322 321 322 322 323 331
240 241 244 246 249 251 256 260 267 273 279 275 269 268 270 270 283 293 311 326 327 324 323 325 325 325 323 315 316 315 319 321 320 321 324 322 321 328
238 244 245 247 246 251 255 257 263 269 277 271 266 264 260 265 277 290 308 320 326 325 325 327 325 322 315 310 310 322 327 321 319 320 327 327 329 334
238 241 247 246 244 248 253 254 260 266 272 265 262 260 255 261 273 287 299 310 319 321 320 322 322 318 316 313 311 318 328 323 317 318 330 333 340 341
241 246 249 245 245 250 250 252 257 263 265 266 260 257 257 264 276 284 289 298 306 312 316 318 323 323 323 317 310 319 326 331 322 318 328 329 331 322
238 243 245 243 241 248 250 250 253 261 264 260 255 256 263 273 280 285 290 296 300 304 314 315 320 322 323 317 313 318 325 328 330 328 331 327 322 318